Location: G�ppingen
(48.7089°N, 9.6563°E)
Time: 22:31:22
(UTC+01:00)

Envisat - Visible Passes

Search period start: 18 January 2018 00:00
Search period end: 28 January 2018 00:00
Orbit: 764 x 766 km, 98.2° (Epoch: 18 January)

Date Brightness Start Highest point End Pass type
(mag) Time Alt. Az. Time Alt. Az. Time Alt. Az.
18 Jan 3.4 19:22:37 44° NNE 19:22:37 44° NNE 19:26:26 10° N visible
18 Jan 5.4 21:02:48 19° WNW 21:02:48 19° WNW 21:04:53 10° NW visible
19 Jan 6.0 07:23:09 10° ENE 07:25:37 13° E 07:28:04 10° ESE visible
19 Jan 3.9 18:45:13 28° ENE 18:45:13 28° ENE 18:49:17 10° N visible
19 Jan 4.3 20:25:25 35° NW 20:25:25 35° NW 20:28:44 10° NNW visible
20 Jan 4.5 18:07:49 15° ENE 18:08:44 15° NE 18:11:35 10° NNE visible
20 Jan 3.2 19:48:01 59° N 19:48:01 59° N 19:52:08 10° NNW visible
20 Jan 5.8 21:28:12 13° WNW 21:28:12 13° WNW 21:29:25 10° NW visible
21 Jan 3.3 19:10:36 43° ENE 19:10:36 43° ENE 19:15:13 10° N visible
21 Jan 4.9 20:50:48 26° WNW 20:50:48 26° WNW 20:54:00 10° NW visible
22 Jan 6.3 07:13:16 10° ENE 07:14:19 11° E 07:15:21 10° E visible
22 Jan 4.0 18:33:12 22° ENE 18:33:59 23° ENE 18:37:56 10° N visible
22 Jan 3.6 20:13:23 53° WNW 20:13:23 53° WNW 20:17:41 10° NNW visible
23 Jan 4.7 17:55:46 10° ENE 17:57:46 13° NE 17:59:54 10° NNE visible
23 Jan 2.8 19:35:58 70° ENE 19:35:58 70° ENE 19:40:59 10° N visible
23 Jan 5.5 21:16:09 17° WNW 21:16:09 17° WNW 21:18:51 10° NW visible
24 Jan 3.5 18:58:32 34° E 18:59:21 36° ENE 19:03:58 10° N visible
24 Jan 4.4 20:38:43 35° W 20:38:43 35° W 20:43:02 10° NNW visible
25 Jan 4.3 18:21:06 16° E 18:22:59 19° ENE 18:26:33 10° NNE visible
25 Jan 3.1 20:01:17 71° WSW 20:01:29 72° WSW 20:06:35 10° NNW visible
25 Jan 6.0 21:41:28 10° W 21:41:28 10° W 21:42:01 10° WNW visible
26 Jan 4.8 17:45:56 10° ENE 17:46:49 10° NE 17:47:43 10° NE visible
26 Jan 3.0 19:23:50 49° ESE 19:24:48 57° ENE 19:29:47 10° N visible
26 Jan 5.2 21:04:01 22° W 21:04:12 22° W 21:08:05 10° NW visible
27 Jan 3.8 18:46:23 23° E 18:48:18 30° ENE 18:52:41 10° N visible
27 Jan 4.0 20:26:34 42° WSW 20:27:10 43° W 20:32:01 10° NNW visible
